Skip Page Navigation
NASA JPL Caltech
NASA Logo - Jet Propulsion Laboratory + View the NASA Portal
+ Center for Near-Earth Object Studies
JPL Home Earth Solar System Stars & Galaxies Technology
JPL Solar System Dynamics
BODIES ORBITS EPHEMERIDES TOOLS PHYSICAL DATA DISCOVERY FAQ SITE MAP
IMPORTANT: The SSD Announcement email list is now available. Major changes are coming in the near future, including possible hostname and/or URL changes. To be notified of such changes, subscribe to this email list.

Please visit this page for more details.


JPL Small-Body Database Browser
Search: [ help ]  
452300 (1994 TC6)
Classification: Main-belt Asteroid          SPK-ID: 2452300
Ephemeris | Orbit Diagram | Orbital Elements | Mission Design | Physical Parameters | Discovery Circumstances ]

[ show orbit diagram ]
Orbital Elements at Epoch 2458600.5 (2019-Apr-27.0) TDB
Reference: JPL 8 (heliocentric ecliptic J2000)
 Element Value Uncertainty (1-sigma)   Units 
e .2359038473243933 2.509e-06  
a 2.289014042147447 1.0856e-07 au
q 1.749026823025303 5.6612e-06 au
i 2.826973917433063 1.2798e-05 deg
node 185.3499144402852 0.00029622 deg
peri 149.9130385477594 0.00029631 deg
M 54.03384467699141 0.00032726 deg
tp 2458410.639560661589
(2018-Oct-19.13956066)
0.0011365 TDB
period 1264.943454799774
3.46
8.9988e-05
2.464e-07
d
yr
n .284597701686977 2.0246e-08 deg/d
Q 2.82900126126959 1.3417e-07 au
  Orbit Determination Parameters
   # obs. used (total)      61  
   data-arc span      7743 days (21.20 yr)  
   first obs. used      1994-10-04  
   last obs. used      2015-12-16  
   planetary ephem.      DE431  
   SB-pert. ephem.      SB431-N16  
   condition code      1  
   norm. resid. RMS      .62437  
   source      ORB  
   producer      Otto Matic  
   solution date      2017-Apr-09 10:51:16  

Additional Information
 Earth MOID = .739175 au 
 Jupiter MOID = 2.55571 au 
 T_jup = 3.561 
[ show covariance matrix ]

Ephemeris | Orbit Diagram | Orbital Elements | Mission Design | Physical Parameters | Discovery Circumstances ]

Physical Parameter Table
Parameter Symbol Value Units Sigma Reference Notes
absolute magnitude H 18.3   n/a MPO251988  

452300 (1994 TC6)          Discovered 1994-Oct-04 by Spacewatch at Kitt Peak
Reference: Last Updated: 2016-01-04

Alternate Designations
 1994 TC6 = 2001 UM126 
Ephemeris | Orbit Diagram | Orbital Elements | Mission Design | Physical Parameters | Discovery Circumstances ]
ABOUT SSD CREDITS/AWARDS PRIVACY/COPYRIGHT GLOSSARY LINKS
FirstGov 2019-Dec-14 17:32 UT
(server date/time)  
NASA Home Page
Site Manager:   Ryan S. Park
Webmaster  Alan B. Chamberlin